Location: Arnolds Mill
(42.3415°N, 73.5951°W)
Time: 00:48:55
(UTC+00:00)

ACS3 Solar Sail - Visible Passes

Search period start: 20 June 2024 00:00
Search period end: 30 June 2024 00:00
Orbit: 992 x 1024 km, 97.4° (Epoch: 19 June)

Date Brightness Start Highest point End Pass type
(mag) Time Alt. Az. Time Alt. Az. Time Alt. Az.
20 Jun 4.9 02:32:38 21° S 02:37:03 81° WSW 02:43:19 10° NNW visible
20 Jun 7.1 04:20:03 10° WSW 04:22:05 12° W 04:24:08 10° WNW visible
21 Jun 5.8 01:22:19 10° SE 01:27:41 31° ENE 01:33:02 10° N visible
21 Jun 5.7 03:07:26 19° SSW 03:11:35 43° W 03:17:30 10° NNW visible
22 Jun 5.1 01:56:53 16° SSE 02:01:51 57° ENE 02:07:56 10° N visible
22 Jun 6.6 03:42:13 12° SW 03:46:19 23° W 03:51:08 10° NW visible
23 Jun 4.9 02:31:41 20° S 02:36:12 79° WSW 02:42:28 10° NNW visible
23 Jun 7.2 04:19:34 10° W 04:21:16 11° W 04:22:58 10° WNW visible
24 Jun 5.8 01:21:24 10° SE 01:26:48 32° ENE 01:32:13 10° N visible
24 Jun 5.7 03:06:29 18° SSW 03:10:45 42° W 03:16:37 10° NNW visible
25 Jun 5.0 01:55:56 15° SSE 02:00:59 59° ENE 02:07:05 10° N visible
25 Jun 6.6 03:41:16 12° SW 03:45:29 22° W 03:50:12 10° NW visible
26 Jun 4.9 02:30:43 19° S 02:35:21 77° WSW 02:41:36 10° NNW visible
26 Jun 7.2 04:19:12 10° W 04:20:26 11° W 04:21:42 10° WNW visible
27 Jun 5.8 01:20:29 10° SE 01:25:56 33° ENE 01:31:23 10° N visible
27 Jun 5.8 03:05:31 17° SSW 03:09:54 41° W 03:15:44 10° NNW visible
28 Jun 5.0 01:54:58 15° SSE 02:00:07 61° ENE 02:06:14 10° N visible
28 Jun 6.7 03:40:19 11° SW 03:44:40 21° W 03:49:17 10° NW visible
29 Jun 5.0 02:29:47 18° S 02:34:29 74° W 02:40:44 10° NNW visible
29 Jun 7.3 04:19:07 10° W 04:19:37 10° W 04:20:08 10° WNW visible
